Provo, UT

2:12 AM MDT on September 30, 2016 (GMT -0600)
Provo Municipal

Weather History for KPVU - June, 2012

Change the Weather History Date:

Tuesday, June 26, 2012

  Actual Average Record
Temperature  
Mean Temperature 78 °F -  
Max Temperature 89 °F 84 °F 98 °F (2002)
Min Temperature 66 °F 53 °F 44 °F (1985)
Cooling Degree Days 12    
Growing Degree Days 28 (Base 50)    
Moisture  
Dew Point 44 °F    
Average Humidity 31    
Maximum Humidity 43    
Minimum Humidity 21    
Precipitation  
Precipitation 0.00 in - - ()
Sea Level Pressure  
Sea Level Pressure 29.89 in    
Wind  
Wind Speed 11 mph (WNW)    
Max Wind Speed 17 mph    
Max Gust Speed -    
Visibility 13 miles    
Events      
Averages and records for this station are not official NWS values.
T = Trace of Precipitation, MM = Missing Value Source: NWS Daily Summary

Daily Weather History Graph

Daily Weather History Graph

Search for Another Location

Airport or City:

Trip Planner

Search our weather history database for the weather conditions in past years. The results will help you decide how hot, cold, wet, or windy it might be!

Date:

Astronomy

Jun. 26, 2012 Rise Set
Actual Time 5:59 AM MDT 9:00 PM MDT
Civil Twilight 5:26 AM MDT 9:33 PM MDT
Nautical Twilight 4:44 AM MDT 10:15 PM MDT
Astronomical Twilight 3:55 AM MDT 11:04 PM MDT
Moon 1:20 PM MDT (6/26) 12:29 AM MDT (6/26)
Length of Visible Light 16h 07m
Length of Day
15h 01m
Waxing Crescent, 46% of the Moon is Illuminated
Jun 26
Waxing Crescent
Jun 26
First Quarter
Jul 3
Full
Jul 10
Last Quarter
Jul 18
New

Hourly Weather History & Observations

Time (MDT) Temp. Dew Point Humidity Pressure Visibility Wind Dir Wind Speed Gust Speed Precip Events Conditions
7:56 AM 69.8 °F 46.4 °F 43% 29.95 in 15.0 mi ESE 8.1 mph - N/A   Clear
8:54 AM 75.2 °F 46.4 °F 36% 29.95 in 15.0 mi East 6.9 mph - N/A   Clear
9:53 AM 82.4 °F 41.0 °F 23% 29.94 in 15.0 mi East 9.2 mph - N/A   Clear
12:50 PM 86.0 °F 42.8 °F 22% 29.92 in 15.0 mi SSW 13.8 mph - N/A   Clear
1:59 PM 87.8 °F 44.6 °F 22% 29.90 in 15.0 mi SSW 17.3 mph - N/A   Clear
2:52 PM 87.8 °F 44.6 °F 22% 29.88 in 15.0 mi SW 17.3 mph - N/A   Clear
3:50 PM 89.6 °F 44.6 °F 21% 29.86 in 15.0 mi SW 16.1 mph - N/A   Clear
4:47 PM 86.0 °F 42.8 °F 22% 29.85 in 15.0 mi NW 9.2 mph - N/A   Clear
5:47 PM 84.2 °F 41.0 °F 22% 29.84 in 15.0 mi WNW 17.3 mph - N/A   Clear
6:57 PM 82.4 °F 42.8 °F 25% 29.83 in 15.0 mi WNW 13.8 mph - N/A   Clear
7:58 PM 78.8 °F 39.2 °F 24% 29.84 in 15.0 mi WNW 13.8 mph - N/A   Clear
8:47 PM 75.2 °F 46.4 °F 36% 29.85 in 15.0 mi WNW 13.8 mph - N/A   Clear
8:55 PM 75.2 °F 46.4 °F 36% 29.85 in 10.0 mi NW 12.7 mph - N/A   Clear
9:35 PM 73.4 °F 46.4 °F 38% 29.86 in 10.0 mi NW 11.5 mph - N/A   Clear
9:55 PM 71.6 °F 44.6 °F 38% 29.88 in 3.0 mi NW 6.9 mph - N/A   Clear
10:35 PM 71.6 °F 42.8 °F 35% 29.90 in 10.0 mi NNW 3.5 mph - N/A   Clear
10:55 PM 66.2 °F 42.8 °F 43% 29.91 in 10.0 mi Calm Calm - N/A   Clear
11:36 PM 68.0 °F 41.0 °F 37% 29.92 in 10.0 mi NW 12.7 mph - N/A   Clear
11:55 PM 69.8 °F 41.0 °F 35% 29.92 in 10.0 mi WNW 17.3 mph - N/A   Clear